Location: *
(46.1866°S, 178.5290°W)
Time: 10:04:51
(UTC+00:00)

Cosmos 883 Rocket - Pass Details

Date: 19 May 2021
Orbit: 950 x 995 km, 83.0° (Epoch: 14 June)

Event Time Altitude Azimuth Distance (km) Brightness Sun altitude
Rises 06:19:48 0° 187° (S) 3,681 7.5 -19.1°
Reaches altitude 10° 06:22:21 10° 183° (S) 2,734 6.8 -19.6°
Maximum altitude 06:28:35 64° 101° (ESE) 1,082 4.4 -20.6°
Drops below altitude 10° 06:34:47 10° 20° (NNE) 2,733 6.7 -21.7°
Sets 06:37:20 0° 16° (NNE) 3,679 7.4 -22.1°
